Home > Weather > Corpus Christi > Past weeks

Flag for U.S.A. Weather for the Past 2 Weeks in Corpus Christi, Texas, U.S.A.

Now
77 °F

Scattered clouds.


Feels Like: 78 °F
Forecast: 55 / 73 °F
Wind: 13 mph from Southeast

Location: Corpus Christi International Airport

Current Time: Feb 13, 2016 at 2:37:06 PM

Latest Report: Feb 13, 2016 at 1:51 PM


Visibility: 10 mi

Pressure: 30.26 "Hg

Humidity: 40%

Dew point: 51 °F

Location of Corpus ChristiLocation

Historic Weather in Corpus Christi — Graph

°F

Corpus Christi Temperature Yesterday

Maximum temperature yesterday: 83 °F (at 2:51 PM)
Minimum temperature yesterday: 52 °F (at 5:51 AM)
Average temperature yesterday: 65 °F

High & Low Weather Summary for the Past Weeks

 TemperatureHumidityPressure
High88 °F (Jan 31, 2:51 PM)100% (Feb 1, 1:51 AM)30.50 "Hg (Feb 1, 1:51 AM)
Low36 °F (Feb 5, 2:51 AM)15% (Feb 9, 12:51 PM)29.56 "Hg (Feb 2, 1:51 AM)
Average60 °F57%30.14 "Hg
* Reported Jan 29 12:51 PM — Feb 13 12:51 PM, Corpus Christi, Weather by CustomWeather, © 2016

Note: Actual official high and low records may vary slightly from our data, if they occured in-between our weather recording intervals... More about our weather records

Advertising

Corpus Christi Weather History for the Previous 24 Hours

 ConditionsComfort  
Time TempWeatherWind HumidityBarometerVisibility
12:51 PM
Sat, Feb 13
76 °FScattered clouds.10 mph43%30.29 "Hg10 mi
11:51 AM74 °FPartly sunny.9 mph48%30.32 "Hg10 mi
10:51 AM73 °FPartly sunny.9 mph51%30.33 "Hg10 mi
9:51 AM71 °FPartly sunny.10 mph61%30.33 "Hg10 mi
8:51 AM64 °FPartly sunny.6 mph87%30.32 "Hg10 mi
7:51 AM53 °FFog.6 mph96%30.31 "Hg5 mi
6:51 AM51 °FFog.5 mph96%30.30 "Hg3 mi
5:51 AM51 °FFog.5 mph96%30.29 "Hg1 mi
4:51 AM50 °FFog.7 mph96%30.27 "Hg7 mi
3:51 AM52 °FFog.3 mph97%30.25 "Hg1 mi
2:51 AM52 °FFog.3 mph97%30.25 "Hg3 mi
1:51 AM56 °FFog.5 mph97%30.25 "Hg7 mi
12:51 AM53 °FPassing clouds.No wind93%30.25 "Hg10 mi
11:51 PM
Fri, Feb 12
58 °FPassing clouds.9 mph90%30.25 "Hg10 mi
10:51 PM61 °FPassing clouds.12 mph83%30.24 "Hg10 mi
9:51 PM62 °FPassing clouds.10 mph80%30.24 "Hg10 mi
8:51 PM63 °FPassing clouds.12 mph78%30.23 "Hg10 mi
7:51 PM64 °FPassing clouds.12 mph75%30.22 "Hg10 mi
6:51 PM68 °FPassing clouds.14 mph65%30.19 "Hg10 mi
5:51 PM73 °FPassing clouds.17 mph57%30.17 "Hg10 mi
4:51 PM78 °FPassing clouds.20 mph48%30.16 "Hg10 mi
3:51 PM82 °FPassing clouds.17 mph46%30.14 "Hg10 mi
2:51 PM83 °FPassing clouds.10 mph43%30.14 "Hg10 mi
Weather by CustomWeather, © 2016

See weather overviewHow to use our weather pages